User: anonymous   Login
Location: Unspecified
(0.0000°N, 0.0000°E)
Time: 16:27:38
(UTC+00:00)
Language:

EDRS-C - Orbit

View from above orbital plane
View from above orbital plane
View from above satellite
View from above satellite

Ground track
Ground track

The orbit data is extracted from the following two-line orbital elements,

1 44475U 19049A   21267.90242381  .00000149  00000-0  00000+0 0  9997
2 44475   0.0992 271.8499 0000754 259.5933 188.5740  1.00269391  7885
Epoch (UTC): 24 September 2021 21:39:29
Eccentricity: 0.0000754
inclination: 0.0992°
perigee height: 35784 km
apogee height: 35790 km
right ascension of ascending node: 271.8499°
argument of perigee: 259.5933°
revolutions per day: 1.00269391
mean anomaly at epoch: 188.5740°
orbit number at epoch: 788

The dashed part of the orbit path shows where the satellite is in the earth's shadow,  

DLR